Satellite: DRAGNSAT
Catalog number: 35690
Epoch time:      09308.88970455
Element set:    0097
Inclination:      051.6439 deg
RA of node:       297.8566 deg
Eccentricity:    0.0006381
Arg of perigee:   083.7478 deg
Mean anomaly:     276.4253 deg
Mean motion:   15.85988572 rev/day
Decay rate:     4.0381e-04 rev/day^2
Epoch rev:           01542
Checksum:              353

Satellite: POLLUX
Catalog number: 35693
Epoch time:      09309.62437395
Element set:      99
Inclination:      051.6405 deg
RA of node:       294.5252 deg
Eccentricity:    0.0005549
Arg of perigee:   051.4676 deg
Mean anomaly:     308.6778 deg
Mean motion:   15.85042312 rev/day
Decay rate:     3.6216e-04 rev/day^2
Epoch rev:            1550
Checksum:              312

Satellite: CASTOR
Catalog number: 35694
Epoch time:      09309.62722070
Element set:      91
Inclination:      051.6417 deg
RA of node:       295.3215 deg
Eccentricity:    0.0005456
Arg of perigee:   049.3497 deg
Mean anomaly:     310.7957 deg
Mean motion:   15.82542855 rev/day
Decay rate:     1.7207e-04 rev/day^2
Epoch rev:            1549
Checksum:              311

Satellite: METEOR-M
Catalog number: 35865
Epoch time:      09308.85962865
Element set:    0047
Inclination:      098.7934 deg
RA of node:       358.8882 deg
Eccentricity:    0.0001534
Arg of perigee:   302.5945 deg
Mean anomaly:     057.5064 deg
Mean motion:   14.21827075 rev/day
Decay rate:       1.76e-06 rev/day^2
Epoch rev:           00684
Checksum:              336

Satellite: STERKH-2
Catalog number: 35866
Epoch time:      09308.84372761
Element set:      51
Inclination:      098.7943 deg
RA of node:       358.9163 deg
Eccentricity:    0.0002365
Arg of perigee:   300.5261 deg
Mean anomaly:     059.5647 deg
Mean motion:   14.22298883 rev/day
Decay rate:       1.78e-06 rev/day^2
Epoch rev:             684
Checksum:              329

Satellite: FREGAT-I
Catalog number: 35867
Epoch time:      09309.81668871
Element set:      58
Inclination:      097.3672 deg
RA of node:       358.9647 deg
Eccentricity:    0.0011690
Arg of perigee:   111.9106 deg
Mean anomaly:     248.3173 deg
Mean motion:   15.22753937 rev/day
Decay rate:      2.268e-05 rev/day^2
Epoch rev:             747
Checksum:              337

/EX




_______________________________________________
Via the Keps mailing list courtesy of AMSAT-NA
http://amsat.org/mailman/listinfo/keps

--- ViaMAIL!/WC v1.60d
 * Origin: Chowdanet (401-724-4410) telnet://chowdanet.com  (1:323/120)